CZ-4B DEB (48625 NORAD) Tracking and Keplerian Element Data

This shows tracking and keplerian element data for the satellite.

Feedback or suggestion? Click here.




ElementValue
Catalog48625
NameCZ-4B DEB
Epoch Orbit409
Epoch Day168.74250809
Epoch Year2021
RAAN169.2281
Inclination66.1683
Eccentricity0.0055116
Argument of Perigee244.1007
Mean Anonmoly115.438
Mean Motion13.88848582
Decay Rate3.78E-06
L11 48625U 21043E 21168.74250809 .00000378 00000-0 37477-3 0 9997
L22 48625 66.1683 169.2281 0055116 244.1007 115.4380 13.88848582 4092

Live tracking and technical data element details for CZ-4B DEB (NORAD 48625). CZ-4B DEB can be tracked NOW for your location showing map with azimuth and elevation plus other details from your city location.

Track the satellite on the map from your city or location and see movement details for azimuth, elevation, latitude, longitude, range, height, and movement on the map or in text.







IsCatalogInMostPopularTable: catalog: 48625, numindb: 41
Update: records affected: 1



GetName: 48625 CZ-4B DEB

Hit Count: updated at: Tue, 19 Oct 2021 09:01:43 GMT